Location: Newark
(51.3318°N, 0.0053°E)
Time: 06:22:56
(UTC+00:00)

BlueWalker 3 - Pass Details

Date: 03 December 2022
Orbit: 499 x 517 km, 53.2° (Epoch: 28 January)

Event Time Altitude Azimuth Distance (km) Brightness Sun altitude
Rises 18:51:16 0° 287° (WNW) 2,630 6.7 -26.6°
Reaches altitude 10° 18:53:28 10° 287° (WNW) 1,738 5.5 -26.9°
Enters shadow 18:55:53 36° 288° (WNW) 827 3.4 -27.3°
